Location: Saint-Usage
(47.1052°N, 5.2587°E)
Time: 03:29:56
(UTC+02:00)

Nauka - Pass Details

Date: 24 September 2021
Orbit: 417 x 423 km, 51.6° (Epoch: 24 October)

Event Time Altitude Azimuth Distance (km) Brightness Sun altitude
Rises 22:30:16 0° 292° (WNW) 2,368 ? -29.4°
Reaches altitude 10° 22:32:25 10° 299° (WNW) 1,504 ? -29.7°
Enters shadow 22:33:12 16° 303° (WNW) 1,203 ? -29.8°
